Location: Sauerland
(51.1981°N, 7.8053°E)
Time: 12:51:48
(UTC+01:00)

ISS - Visible Passes

Search period start: 03 December 2022 00:00
Search period end: 13 December 2022 00:00
Orbit: 414 x 420 km, 51.6° (Epoch: 03 December)

Date Brightness Start Highest point End Pass type
(mag) Time Alt. Az. Time Alt. Az. Time Alt. Az.
03 Dec -3.1 17:51:19 10° W 17:54:36 54° SSW 17:57:24 13° SE visible
03 Dec -0.8 19:28:54 10° WSW 19:30:21 14° SW 19:30:21 14° SW visible
04 Dec -3.5 17:03:10 10° W 17:06:31 71° SSW 17:09:51 10° ESE visible
04 Dec -1.4 18:40:18 10° W 18:42:54 21° SW 18:44:44 14° S visible
05 Dec -1.9 17:51:56 10° W 17:54:55 30° SSW 17:57:52 10° SSE visible
06 Dec -2.4 17:03:40 10° W 17:06:51 41° SSW 17:10:01 10° SE visible
07 Dec -0.7 17:52:56 10° WSW 17:54:58 15° SW 17:56:59 10° S visible
08 Dec -1.0 17:04:17 10° W 17:06:57 22° SW 17:09:36 10° SSE visible
10 Dec 0.1 17:06:05 10° WSW 17:06:47 11° SW 17:07:30 10° SSW visible
